This is the latest recevied weather packets stored in our database for station/object G4ZMG. If no packets are shown the sender has not sent any weather packets the latest 10 day(s).
| Time | Temp. | Humidity | Pressure | Rain* | Wind** | Luminosity | Snow |
|---|---|---|---|---|---|---|---|
| 1777806035 | 15.56° C | 77% | 1008.2 hPa | 0 mm | - | 258 W/m² | - |
| 1777805423 | 15° C | 77% | 1008.1 hPa | 0 mm | - | 292 W/m² | - |
| 1777804846 | 15° C | 79% | 1008.1 hPa | 0 mm | - | 357 W/m² | - |
| 1777804238 | 14.44° C | 79% | 1008.2 hPa | 0 mm | - | 204 W/m² | - |
| 1777803624 | 15° C | 78% | 1008.3 hPa | 0 mm | - | 248 W/m² | - |
| 1777803006 | 15° C | 78% | 1008.2 hPa | 0 mm | - | 185 W/m² | - |
| 1777802439 | 16.11° C | 77% | 1008.1 hPa | 0 mm | - | 378 W/m² | - |
| 1777801825 | 15.56° C | 80% | 1008.1 hPa | 0 mm | - | 798 W/m² | - |
| 1777801245 | 14.44° C | 81% | 1008.2 hPa | 0 mm | - | 833 W/m² | - |
| 1777800636 | 15° C | 81% | 1008.2 hPa | 0 mm | - | 297 W/m² | - |
| 1777800023 | 15° C | 81% | 1008.1 hPa | 0 mm | - | 376 W/m² | - |
| 1777799404 | 14.44° C | 84% | 1008.1 hPa | 0 mm | - | 729 W/m² | - |
| 1777798830 | 13.89° C | 85% | 1008.2 hPa | 0 mm | - | 225 W/m² | - |
| 1777798211 | 13.33° C | 87% | 1008.4 hPa | 0 mm | - | 487 W/m² | - |
| 1777797606 | 13.33° C | 87% | 1008.3 hPa | 0 mm | - | 246 W/m² | - |
| 1777797039 | 13.33° C | 89% | 1008.1 hPa | 0 mm | - | 464 W/m² | - |
| 1777796429 | 12.78° C | 90% | 1008.1 hPa | 0 mm | - | 424 W/m² | - |
| 1777795807 | 12.22° C | 91% | 1008.1 hPa | 0 mm | - | 424 W/m² | - |
| 1777795223 | 12.22° C | 92% | 1008 hPa | 0 mm | - | 183 W/m² | - |
| 1777794603 | 11.67° C | 94% | 1008.2 hPa | 0 mm | - | 297 W/m² | - |
| 1777794040 | 10.56° C | 95% | 1008.2 hPa | 0 mm | - | 311 W/m² | - |
| 1777793430 | 10.56° C | 95% | 1008.3 hPa | 0 mm | - | 90 W/m² | - |
| 1777792817 | 10.56° C | 95% | 1008.2 hPa | 0 mm | - | 51 W/m² | - |
| 1777792204 | 10.56° C | 95% | 1008.3 hPa | 0 mm | - | 60 W/m² | - |
| 1777791639 | 10.56° C | 95% | 1008.2 hPa | 0 mm | - | 77 W/m² | - |
* Rain latest hour (hover to see other rain measurements)
** Current wind speed in m/s (hover to see current wind gust speed)